Simultaneous Nadir Overpasses (SNOs) Predictions

Prediction of SNOs between TERRA and METOP-C Satellite Orbit:

Table of predicted SNOs for the next 14.0 days since TLE Epoch: 5/20/2023
Index Date (TERRA) Time (TERRA) Lat,Lon (TERRA) SZA (TERRA ) Date (METOP-C) Time (METOP-C) Lat,Lon (METOP-C) SZA (METOP-C ) Distance(km) Time Diff (sec)
1 05/21/2023 06:03:57 80.80, 121.59 62.24 05/21/2023 06:02:54 80.80, 121.53 62.21 1.17 63
2 05/21/2023 06:53:17 -80.86, -70.06 117.66 05/21/2023 06:53:31 -80.86, -70.03 117.65 0.66 14
3 05/23/2023 22:14:51 80.82,-120.97 61.74 05/23/2023 22:14:30 80.82,-121.04 61.72 1.26 21
4 05/23/2023 23:04:11 -80.88, 47.42 118.15 05/23/2023 23:05:07 -80.88, 47.46 118.13 0.70 56
5 05/26/2023 13:36:23 -80.79,-171.77 118.81 05/26/2023 13:35:26 -80.79,-171.72 118.82 1.12 57
6 05/26/2023 14:25:43 80.85, -3.38 61.31 05/26/2023 14:26:04 80.85, -3.32 61.32 1.09 21
7 05/29/2023 05:47:16 -80.80, -54.31 119.22 05/29/2023 05:47:02 -80.81, -54.34 119.23 0.61 14
8 05/29/2023 06:36:36 80.86, 114.04 60.89 05/29/2023 06:37:40 80.86, 114.00 60.91 0.71 64
9 05/31/2023 21:08:47 80.79,-104.87 60.36 05/31/2023 21:07:59 80.78,-105.00 60.32 2.35 48



Historial Predications of SNOs between TERRA and METOP-C
